Location: St. Louis
(38.6270°N, 90.1994°W)
Time: 09:23:08
(UTC-05:00)

Altair - Pass Details

Date: 01 July 2022
Orbit: 1502 x 1682 km, 47.2° (Epoch: 16 August)

Event Time Altitude Azimuth Distance (km) Brightness Sun altitude
Rises 04:41:51 0° 180° (S) 4,626 9.6 -10.1°
Reaches altitude 10° 04:46:12 10° 162° (SSE) 3,642 9.3 -9.4°
Maximum altitude 04:51:39 18° 124° (SE) 3,093 9.3 -8.6°
Drops below altitude 10° 04:57:07 10° 87° (E) 3,668 10.4 -7.7°
Sets 05:01:29 0° 69° (ENE) 4,674 11.8 -7.1°
